This demonstration page uses our WeatherBlox Daily Observations layout. Learn more.

Left ArrowRight Arrow

Hourly Observations for March 31, 2021

Temp ( °F °C ) Dew Point ( °F °C ) Humidity (%) Winds ( mph kmh ) Pressure ( in mb ) Visibility ( mi km ) Precip ( " mm )
12:53 am 00:53 Clear 20 -6.7 9 -12.8 62 62 SW 9 15 30.31 1026 10 16 N/A
1:53 am 01:53 Clear 21 -6.1 11 -11.7 65 65 SW 14 22 30.31 1026 10 16 N/A
2:53 am 02:53 Clear 23 -5 13 -10.6 65 65 SW 16 26 30.31 1026 10 16 N/A
3:53 am 03:53 Clear 22 -5.6 13 -10.6 68 68 SW 16 26 30.32 1027 10 16 N/A
4:53 am 04:53 Clear 20 -6.7 13 -10.6 74 74 SW 14 22 30.34 1028 10 16 N/A
5:53 am 05:53 Clear 22 -5.6 14 -10 71 71 SW 13 20 30.35 1028 10 16 N/A
6:53 am 06:53 Clear 24 -4.4 14 -10 65 65 SW 17 28 30.36 1028 10 16 N/A
7:53 am 07:53 Sunny 26 -3.3 16 -8.9 66 66 SW 14 22 30.38 1029 10 16 N/A
8:53 am 08:53 Sunny 34 1.1 18 -7.8 52 52 SW 17 28 30.37 1029 10 16 N/A
9:53 am 09:53 Sunny 38 3.3 18 -7.8 44 44 SW 16 26 30.39 1029 10 16 N/A
10:53 am 10:53 Sunny 42 5.6 19 -7.2 40 40 SW 20 31 30.37 1028 10 16 N/A
11:53 am 11:53 Sunny 47 8.3 18 -7.8 31 31 WSW 18 30 30.36 1028 10 16 N/A
12:53 pm 12:53 Sunny 50 10 16 -8.9 26 26 SW 20 31 30.33 1027 10 16 N/A
1:53 pm 13:53 Sunny 51 10.6 16 -8.9 25 25 W 18 30 30.31 1026 10 16 N/A
2:53 pm 14:53 Sunny 53 11.7 16 -8.9 23 23 SW 20 31 30.28 1025 10 16 N/A
3:53 pm 15:53 Sunny 54 12.2 16 -8.9 22 22 SW 13 20 30.24 1024 10 16 N/A
4:53 pm 16:53 Sunny 55 12.8 16 -8.9 21 21 WSW 20 31 30.22 1024 10 16 N/A
5:53 pm 17:53 Sunny 55 12.8 16 -8.9 21 21 WSW 15 24 30.20 1023 10 16 N/A
6:53 pm 18:53 Sunny 53 11.7 17 -8.3 24 24 WSW 15 24 30.18 1022 10 16 N/A
7:53 pm 19:53 Clear 43 6.1 18 -7.8 37 37 SW 10 17 30.17 1022 10 16 N/A
8:53 pm 20:53 Clear 40 4.4 18 -7.8 41 41 S 12 19 30.15 1021 10 16 N/A
9:53 pm 21:53 Clear 37 2.8 18 -7.8 46 46 WSW 7 11 30.15 1021 10 16 N/A
10:53 pm 22:53 Clear 34 1.1 18 -7.8 52 52 SSW 7 11 30.14 1021 10 16 N/A
11:53 pm 23:53 Clear 37 2.8 20 -6.7 50 50 SW 13 20 30.12 1020 10 16 N/A

Powered by AerisWeather